Showing default

COSMOS 84, 1574

Orbit data source: Space-Track

COSMOS 84, 1574 is a payload satellite owned by OKB-10 (CIS) in LEO that was launched on Fri, 03 Sep 1965 UTC via a KOSMOS 65S3 launch vehicle from the Tyuratam Missile And Space Complex (TTMTR). Payload-class satellites include a variety of spacecraft equipped with specific instruments for various scientific and technological missions. These include communications satellites like Starlink; space stations such as the ISS; scientific satellites like the Hubble; Earth observation satellites from companies like Planet Labs, Umbra, and HawkEye 360; GPS; miniature CubeSats for education and research; and military/defense satellites.

Loading next visibility...
Identifier
1574, 1965-070E
Orbit
LEO
Country
Flag of CISCIS
Related business
Manufacturer
OKB-10
Mission
Spacecraft
Bus & Motor
STRELA-1 11F610, Unknown motor
Mass
50 kg wet, 50 kg dry
Launch date (UTC)
1965-09-03 (61 years ago)
Launch vehicle
KOSMOS 65S3
Launch site
Tyuratam Missile And Space Complex (TTMTR)
Object type
Payload
Rocket body
Debris
Shape & HBR
POLY, 1.1 m
Radar Cross Section
Medium (>0.1 m² and <1 m²)

Expand to show TLE details & history
Last TLE update: 9 hours ago

TLE from 9 hours ago
0 COSMOS 84
1 01574U 65070E   26267.14590470 -.00000089  00000-0  21748-4 0  9992
2 01574  56.0524 165.8834 0064433   8.6232 140.1566 12.37039150758674
Epoch: 2026-09-24T03:30Z
TLE epoch observation values (Epoch: 2026-09-24T03:30:06.166Z)
Latitude
25.15226°
Longitude
-87.96312°
Altitude
1,559.607 km
Speed
7.073 km/s
True Right ascension
21h 50m 11s
True Declination
25° 02' 01"
Sunlit
Object was in full shadow at epoch
Visualization orbit readout
Latitude
Unknown
Longitude
Unknown
Altitude
Unknown
Speed
Unknown
Apparent Right ascension
Unknown
Apparent Declination
Unknown
Sunlit
N/A
Visualization observer readout
Local Sidereal Time
06:10:37
Azimuth
Unknown
Elevation
Unknown
Doppler factor
Unknown
Orbital elements
Apogee altitude
1,569.888 km
Perigee altitude
1,468.121 km
Semi-major axis
7,897.142 km
Eccentricity
0.00644
Inclination
56.0524°
RAAN
165.8834°
Arg. of periapsis
8.6232°
True anomaly
140.62674°
Mean anomaly
140.1566°
Eccentric anomaly
140.39196°
Mean motion
3.0927 °/min
Orbital period
116.4 mins
BSTAR
0.000021748
Loading maneuver chart data...
Computing Atmospheric mass density...
Loading historical data...
Loading historical data...
Loading historical data...
Loading historical data...
Loading historical data...
Loading historical data...
Loading historical data...
Other satellites on launch #70 in the year 1965 (1965-09-03 UTC)

Documentation

Showing up to 5 results
|